Presure
210 134 183 169 136 207 226 225 249 252 226 245 264 257 136 135 132 129 179 256 130 134 140 131 131 166 282 197 283 327 327 311 347 334 311 209 292 283 275 278 232 272 187
219 194 210 217 218 217 213 238 242 240 249 206 214 253 265 255 254 239 235 256 278 257 270 285 271 261 125 124 126 124 126 318 319 281 324 290 278 283 265 273 270 247 257
215 214 221 220 198 235 233 230 240 246 240 229 241 244 259 264 265 256 243 242 268 294 167 284 275 271 276 265 280 278 272 273 215 248 308 314 281 268 275 266 280 280 276
204 260 254 233 208 228 230 236 244 225 239 245 241 239 241 259 263 266 254 259 263 273 298 257 287 209 320 297 260 298 284 275 257 265 186 156 208 223 279 273 264 264 243
231 184 210 227 247 213 235 247 226 229 240 239 240 235 240 246 258 262 267 262 252 268 283 160 261 293 282 304 266 317 341 286 285 270 251 263 268 265 220 121 148 273 268
227 223 225 216 235 244 236 238 238 228 227 232 243 254 242 238 237 261 261 267 261 251 266 277 274 291 285 295 253 350 296 358 332 289 294 269 270 261 263 259 295 292 285
229 201 214 221 223 202 212 218 244 214 233 249 232 237 243 251 230 239 257 256 265 255 252 264 282 296 307 280 315 313 332 294 295 378 394 290 283 277 271 270 274 267 255
228 225 224 218 211 204 235 234 229 217 240 233 257 231 237 213 246 231 262 258 254 263 252 268 268 287 305 290 315 277 337 286 336 363 382 369 371 309 288 284 274 265 264
219 227 225 215 211 222 226 235 223 247 252 244 258 253 246 240 278 226 257 258 255 263 265 254 271 278 289 298 287 301 293 318 371 389 385 355 351 347 328 286 281 278 242
217 227 230 225 212 217 236 244 236 249 251 253 259 276 280 242 251 254 240 273 253 260 272 268 264 280 288 292 298 269 286 310 382 370 368 363 341 330 331 346 352 289 280
209 225 226 233 233 230 234 236 247 249 242 247 267 277 268 243 241 246 265 264 255 257 268 261 252 280 284 295 288 275 278 296 364 349 345 348 353 330 325 314 324 336 359
224 226 222 229 231 231 231 236 250 255 255 311 303 286 280 260 260 249 268 266 253 258 255 281 264 284 283 300 281 278 313 320 349 327 324 327 326 342 339 328 320 313 315
221 219 226 226 235 233 239 247 259 269 311 324 319 285 275 263 255 279 266 265 255 264 253 277 285 278 281 296 276 271 288 376 325 306 299 297 299 304 309 319 331 335 317
217 224 233 233 239 239 244 258 270 284 340 161 299 285 277 260 274 277 273 265 257 269 262 243 286 275 280 287 268 311 377 328 300 293 327 449 439 432 337 324 308 307 315
224 234 232 236 247 256 283 285 280 290 327 299 294 287 286 220 272 292 278 267 255 253 266 253 280 278 298 295 274 283 347 304 349 468 467 466 369 364 367 375 382 393 408
233 134 225 218 289 286 260 199 365 367 177 295 281 287 276 181 270 282 276 267 262 276 276 265 276 277 290 272 283 358 307 309 404 395 391 391 391 393 395 387 354 359 366
244 240 245 304 243 391 245 365 345 332 287 257 286 295 283 286 276 286 267 267 276 272 268 271 276 288 289 263 274 327 300 388 371 366 362 360 361 365 375 381 393 406 446
179 238 194 257 349 256 344 351 303 273 296 289 284 269 287 284 291 278 265 273 283 270 266 277 271 287 271 307 327 301 305 362 354 345 342 340 346 366 371 377 393 404 426
195 257 376 328 354 353 249 323 306 308 296 291 284 285 302 287 281 270 269 279 277 271 275 270 286 275 267 273 338 293 370 353 341 334 326 335 358 374 386 388 401 414 403
339 346 326 200 357 339 330 315 312 302 302 293 280 278 290 291 283 266 290 287 273 270 272 272 282 267 301 295 306 291 362 340 336 330 330 351 370 391 410 415 421 433 442
338 330 338 297 347 336 307 329 317 305 306 310 284 289 301 296 271 291 277 279 270 273 265 289 281 273 274 352 288 302 351 342 328 328 338 347 363 377 371 367 372 375 374
301 292 315 351 277 327 333 327 319 311 303 304 289 305 276 277 295 290 282 279 274 270 289 284 284 292 285 316 284 363 344 328 320 320 341 352 347 348 347 356 361 365 371
244 309 315 322 235 303 327 336 339 320 252 235 312 265 279 305 291 282 286 275 278 265 279 289 270 278 323 292 285 346 341 322 318 320 338 337 344 347 360 331 323 323 326
291 299 286 297 190 318 330 352 207 331 323 296 311 299 305 299 287 286 278 278 270 287 268 287 286 272 350 278 312 353 338 313 309 319 312 345 328 317 313 309 313 314 319
304 284 162 314 197 358 153 414 358 157 337 314 295 304 290 288 285 282 278 268 301 272 268 272 285 300 307 276 378 351 326 314 308 314 308 346 319 307 306 303 306 308 313
294 261 319 306 300 358 356 409 314 349 327 318 304 289 285 288 278 277 272 293 276 262 254 272 272 310 288 281 356 342 326 318 308 304 309 343 313 302 296 301 305 308 325
Wind_Speed
41 47 43 46 52 46 48 45 52 50 48 47 51 50 60 60 59 57 53 42 58 60 56 56 54 49 37 51 31 29 32 52 53 67 77 69 88 99 98 97 104 111 86
42 49 47 48 50 49 49 56 56 54 54 49 51 52 53 50 49 45 44 49 51 44 43 42 43 42 57 56 56 56 58 39 47 65 69 76 84 95 105 80 94 103 110
47 48 50 50 54 54 54 56 57 57 57 52 55 55 57 55 54 50 47 46 53 50 58 44 42 46 43 42 45 47 45 45 54 56 67 84 92 98 101 106 95 97 96
52 48 48 51 55 54 56 58 58 56 60 60 60 57 57 59 56 55 51 53 52 53 50 44 47 52 42 43 46 52 55 56 51 53 58 65 74 85 98 100 99 102 97
56 56 57 55 56 60 58 56 61 61 61 62 61 61 60 60 60 58 56 54 51 54 53 61 47 49 45 45 50 49 50 62 66 63 58 62 69 74 86 68 73 107 108
59 55 57 57 63 59 61 63 62 64 65 65 64 64 63 61 57 59 56 56 54 52 54 54 52 54 50 50 54 50 56 49 65 73 81 71 73 70 75 75 98 102 99
65 63 60 61 63 63 64 65 69 65 66 72 69 68 67 64 61 61 61 59 57 54 54 56 57 57 56 50 57 54 52 57 63 58 61 83 87 83 82 84 88 86 80
67 68 68 67 65 63 74 74 74 68 73 70 73 73 70 61 64 61 63 61 59 60 55 60 58 60 60 56 63 55 61 57 57 57 59 63 67 105 97 95 94 85 88
70 71 72 71 70 76 76 78 74 83 80 78 75 70 72 70 63 61 64 63 61 62 62 59 64 64 63 63 58 63 59 62 55 52 55 62 63 69 58 106 99 100 91
75 74 73 75 74 78 79 80 81 88 84 80 79 73 70 71 68 66 65 68 63 64 66 64 63 68 68 68 69 58 62 66 53 51 52 60 64 66 66 58 63 95 111
76 78 78 79 81 79 81 86 92 91 88 86 82 71 68 72 68 68 68 67 64 64 68 64 62 70 70 72 67 62 65 69 53 52 52 54 63 68 69 71 68 59 55
83 83 79 81 82 82 84 91 98 98 93 79 71 68 66 66 67 69 68 69 63 66 64 71 67 72 71 75 66 65 72 66 53 52 52 55 55 60 69 71 73 74 72
82 78 82 82 91 90 96 100 104 98 82 69 60 62 65 67 68 67 68 67 64 68 64 72 73 72 72 75 67 67 72 55 52 53 55 59 61 63 65 65 68 73 78
81 89 93 95 100 98 102 109 102 91 61 40 55 60 66 69 66 67 69 67 62 67 67 61 72 72 74 74 67 76 64 55 56 61 63 47 48 49 70 72 72 69 71
93 99 97 101 108 111 107 96 92 81 55 55 54 60 62 53 64 64 67 65 61 63 67 64 71 72 79 77 71 75 63 62 57 31 29 27 47 49 50 51 52 52 54
100 38 94 90 109 101 94 57 59 49 37 49 58 57 59 44 60 60 60 61 62 67 68 68 72 73 77 70 74 70 65 69 34 32 31 30 31 34 36 41 50 51 53
106 100 100 103 93 55 65 50 46 41 54 64 52 52 56 57 60 61 60 61 64 64 65 68 72 76 77 68 74 66 67 35 36 35 34 34 36 39 38 38 39 39 35
63 94 71 97 61 87 50 43 48 58 45 49 53 57 56 57 54 58 59 61 64 63 64 68 69 74 69 75 71 63 64 39 36 38 38 39 40 41 41 40 39 35 31
64 53 55 68 53 43 41 40 45 41 48 49 52 51 49 51 56 57 59 60 60 61 64 65 70 71 69 71 63 62 34 34 35 38 41 44 45 45 42 38 36 31 28
69 61 57 39 44 42 41 42 43 46 48 48 52 50 53 58 56 56 58 57 60 60 62 65 67 66 69 71 59 61 33 34 36 39 42 45 46 39 33 31 29 25 20
60 58 54 52 48 44 47 43 44 45 50 47 50 51 53 53 53 53 54 56 57 59 59 63 65 67 67 57 57 61 31 32 36 39 43 42 38 33 34 34 29 23 20
61 63 53 49 43 46 46 46 48 49 49 49 48 48 51 52 52 51 52 53 55 56 60 61 62 64 68 56 56 28 30 31 35 37 39 36 32 32 34 31 28 26 25
43 51 51 48 35 47 47 46 50 49 46 41 43 49 48 47 46 51 51 51 53 54 57 58 61 63 65 51 55 33 23 27 30 34 34 31 29 32 25 26 27 27 26
50 48 48 47 36 47 47 47 47 45 47 40 40 40 38 41 46 49 48 50 50 52 54 55 60 62 49 49 49 21 19 25 26 29 30 27 18 19 21 21 22 21 20
53 49 32 47 35 44 43 39 47 47 34 39 39 35 40 42 45 47 47 47 47 51 53 56 57 63 49 48 18 18 19 21 22 24 26 22 12 13 14 15 16 17 17
51 47 50 46 46 40 41 33 39 38 33 36 34 38 41 41 45 46 45 49 48 48 50 54 57 59 45 49 25 20 15 18 19 21 23 15 7 10 14 16 17 19 19
Wind_Direction
307 279 298 291 280 312 320 317 332 327 315 321 329 324 280 280 280 280 292 322 284 281 281 279 277 281 310 275 290 253 256 245 243 234 234 249 242 242 244 249 248 245 251
321 302 313 317 317 314 311 328 327 325 325 308 313 324 325 320 321 311 313 320 321 317 314 315 309 304 272 269 271 270 271 249 243 240 234 225 229 232 241 238 244 248 248
315 314 317 320 309 325 325 323 324 323 323 318 322 322 323 323 322 319 311 312 321 319 285 312 306 296 297 293 283 283 281 276 260 250 238 226 228 237 239 245 244 243 248
312 334 329 321 311 319 320 321 322 319 323 320 320 319 320 321 321 321 318 318 319 318 316 307 308 289 310 295 286 270 269 271 270 267 263 254 243 243 237 240 245 246 251
328 307 315 325 328 314 321 325 317 318 320 318 318 317 317 319 318 319 321 318 314 319 317 283 305 306 300 298 286 274 273 265 261 265 263 259 253 254 248 263 259 248 251
324 321 323 315 324 326 322 321 317 315 315 317 314 315 312 314 314 315 316 318 316 311 315 314 308 309 301 301 282 305 272 286 262 260 253 261 260 258 256 256 244 246 248
324 308 311 317 318 308 311 313 321 312 311 314 312 312 311 310 310 312 313 313 315 311 311 311 313 312 309 297 307 299 297 274 273 271 267 255 255 256 257 256 252 253 256
321 319 317 314 308 311 320 317 313 311 312 311 309 308 308 305 308 308 310 310 311 312 309 311 310 312 314 303 311 289 306 283 283 277 265 262 263 249 253 252 254 255 254
317 317 315 311 309 315 315 316 311 317 313 308 310 303 303 305 303 307 307 307 308 310 311 309 310 311 311 309 303 307 297 302 294 283 271 260 260 260 265 250 253 253 255
317 316 314 311 309 311 316 317 313 315 311 309 307 305 305 301 304 304 305 307 306 307 310 310 308 310 312 312 312 297 302 305 298 288 279 265 259 258 258 257 258 253 252
313 315 313 313 313 309 312 315 315 314 307 306 307 301 299 300 303 303 303 302 304 306 309 309 307 310 312 314 310 305 306 308 298 293 285 280 268 260 259 257 257 254 260
314 312 311 313 311 310 311 313 312 311 308 303 300 295 296 294 297 300 298 299 303 305 308 309 309 310 312 314 311 310 314 309 299 294 290 285 281 274 264 260 257 256 254
313 310 313 312 315 313 313 313 312 309 304 298 296 294 295 293 296 298 296 298 301 306 307 309 311 310 312 314 312 312 312 305 298 293 290 286 283 279 274 269 264 260 257
311 312 314 314 313 311 311 310 307 305 294 313 292 287 289 293 292 293 291 296 301 305 306 306 310 310 314 314 313 316 316 308 301 297 293 297 292 287 272 271 269 265 260
312 314 313 312 311 309 306 305 305 303 293 294 287 285 287 300 292 291 289 295 302 303 306 307 310 312 316 316 316 316 316 310 310 326 324 322 290 286 283 280 276 273 269
310 303 309 310 305 305 305 301 301 292 306 287 288 289 289 308 291 290 290 296 301 304 305 310 312 314 316 317 318 321 317 316 329 329 328 323 317 310 303 293 278 275 271
307 307 308 304 305 300 304 304 293 290 289 295 286 288 286 288 290 293 293 299 302 303 306 311 312 315 317 318 320 321 318 328 328 330 328 327 324 318 313 307 304 301 297
306 306 305 304 300 303 299 298 288 291 280 280 281 285 290 289 292 291 297 298 301 303 308 311 313 316 318 320 323 320 322 326 327 326 326 323 322 323 316 313 312 308 305
305 306 300 303 298 292 301 284 283 277 276 278 282 287 290 284 285 291 297 299 301 304 308 311 314 316 321 322 324 322 325 325 324 322 320 324 330 327 321 317 315 315 306
302 302 302 297 293 291 284 283 280 278 278 277 280 284 287 283 286 296 296 297 300 306 310 313 315 319 321 323 322 324 324 322 320 325 327 337 337 338 333 329 327 328 334
301 302 300 301 292 285 291 277 275 275 278 282 277 281 286 282 292 293 295 296 302 307 312 314 316 320 321 326 323 327 323 324 330 333 337 341 345 0 6 5 3 3 357
299 300 300 294 284 291 281 282 275 276 278 276 278 284 286 287 289 289 292 297 303 308 311 313 317 321 325 325 325 319 324 329 332 337 342 344 350 359 358 358 2 4 359
299 298 298 297 299 295 285 276 275 274 284 297 283 287 285 288 285 288 293 300 305 310 312 316 320 322 328 324 328 325 326 328 336 341 347 352 11 6 14 38 33 29 26
296 293 297 295 293 293 285 267 294 276 268 274 286 281 290 285 286 290 296 303 307 309 314 317 319 323 326 325 329 322 328 327 335 346 349 1 38 38 37 34 35 29 26
292 294 293 293 300 288 303 274 260 307 267 271 276 280 280 285 287 292 299 305 308 311 316 319 320 327 323 327 320 313 321 326 331 348 350 356 39 33 37 20 19 16 19
288 295 291 291 292 287 284 272 275 261 258 263 269 274 280 284 290 294 301 305 308 314 318 320 322 326 322 328 328 320 320 322 327 343 351 5 19 15 4 15 11 12 21